Terug naar catalogus

ERS 1 DEB

ActiefSSO
NORAD 35260·DEBRIS·🇪🇺 EU

Gelanceerd Jul 17, 1991 vanaf Guiana Space Centre

Loading…

Volgende Passages (komende 24 uur)

TLE

VersSource: Space-Track

Epoch: Sep 14, 2026, 02:07 UTC

1 35260U 91050P   26257.08835344  .00001620  00000-0  35105-3 0  9994
2 35260  98.5267 306.2757 0023096  56.5339 333.7968 14.59451719108257

Volg ERS 1 DEB in realtime met AllMySat

Download on the App Store